GPS BIIR-5 (PRN 22)

Last updated on Fri Dec 12 2025 00:03:17 GMT+0000 (Coordinated Universal Time)

1 26407U 00040A 25345.55875272 .00000003 00000+0 00000+0 0 9994 2 26407 54.8910 222.6159 0126076 301.7890 223.0098 2.00567937186182
UTC large
Height (km)
Speed (km/s)
/
Latitude / Longitude
Inclination (degrees)
Orbital Period (minutes)
Azimuth
Elevation
Range (km)
Doppler Factor

Next 0 passes for location: London (51.5072 / 0.1276)

Sorry there are no passes over London.